Weather History for Minneapolis Flying Cloud, MN

Change the Weather History Date:

Tuesday, September 10, 2013

  Actual Average Record
Temperature  
Mean Temperature 74 °F -  
Max Temperature 82 °F 75 °F 89 °F (1998)
Min Temperature 68 °F 54 °F 48 °F (2014)
Cooling Degree Days 10    
Growing Degree Days 24 (Base 50)    
Moisture  
Dew Point 64 °F    
Average Humidity 71    
Maximum Humidity 90    
Minimum Humidity 52    
Precipitation  
Precipitation 0.01 in - - ()
Sea Level Pressure  
Sea Level Pressure 29.89 in    
Wind  
Wind Speed 7 mph (WSW)    
Max Wind Speed 13 mph    
Max Gust Speed -    
Visibility 10 miles    
Events Rain    
Averages and records for this station are not official NWS values.
T = Trace of Precipitation, MM = Missing Value Source: NWS Daily Summary

Daily Weather History Graph

Daily Weather History Graph

Search for Another Location

Airport:

Trip Planner

Search our weather history database for the weather conditions in past years. The results will help you decide how hot, cold, wet, or windy it might be!

Date:

Astronomy

Sep. 10, 2013 Rise Set
Actual Time 6:47 AM CDT 7:33 PM CDT
Civil Twilight 6:17 AM CDT 8:03 PM CDT
Nautical Twilight 5:42 AM CDT 8:38 PM CDT
Astronomical Twilight 5:05 AM CDT 9:14 PM CDT
Moon 12:28 PM CDT (9/10) 10:21 PM CDT (9/10)
Length of Visible Light 13h 45m
Length of Day
12h 46m
Waxing Crescent, 28% of the Moon is Illuminated
Sep 10
Waxing Crescent
Sep 12
First Quarter
Sep 19
Full
Sep 26
Last Quarter
Oct 4
New

Hourly Weather History & Observations

Time (CDT) Temp. Heat Index Dew Point Humidity Pressure Visibility Wind Dir Wind Speed Gust Speed Precip Events Conditions
12:53 AM 75.9 °F - 66.9 °F 74% 29.76 in 10.0 mi WNW 10.4 mph - N/A   Partly Cloudy
1:53 AM 73.9 °F - 64.9 °F 73% 29.78 in 10.0 mi West 12.7 mph - N/A   Partly Cloudy
2:53 AM 73.0 °F - 64.9 °F 76% 29.81 in 10.0 mi West 8.1 mph - 0.00 in   Partly Cloudy
3:53 AM 72.0 °F - 64.9 °F 78% 29.81 in 10.0 mi WSW 3.5 mph - N/A   Partly Cloudy
4:53 AM 70.0 °F - 64.9 °F 84% 29.82 in 10.0 mi SW 5.8 mph - N/A   Clear
5:53 AM 68.0 °F - 64.9 °F 90% 29.83 in 10.0 mi WSW 5.8 mph - N/A   Clear
6:53 AM 68.0 °F - 64.9 °F 90% 29.88 in 10.0 mi West 4.6 mph - N/A   Mostly Cloudy
7:53 AM 69.1 °F - 64.9 °F 87% 29.87 in 10.0 mi SW 3.5 mph - N/A   Partly Cloudy
8:53 AM 71.1 °F - 66.0 °F 84% 29.87 in 10.0 mi SW 4.6 mph - N/A   Scattered Clouds
9:53 AM 73.9 °F - 64.9 °F 73% 29.88 in 10.0 mi WSW 4.6 mph - N/A   Clear
10:53 AM 75.9 °F - 64.9 °F 69% 29.91 in 10.0 mi WSW 6.9 mph - N/A   Partly Cloudy
11:53 AM 72.0 °F - 64.9 °F 78% 29.92 in 4.0 mi WSW 4.6 mph - 0.01 in Rain Light Rain
12:53 PM 78.1 °F - 64.9 °F 64% 29.92 in 10.0 mi WSW 8.1 mph - 0.00 in   Mostly Cloudy
1:53 PM 78.1 °F - 64.0 °F 62% 29.92 in 10.0 mi West 8.1 mph - N/A   Partly Cloudy
2:53 PM 78.1 °F - 62.1 °F 58% 29.91 in 10.0 mi WSW 8.1 mph - N/A   Mostly Cloudy
3:53 PM 77.0 °F - 63.0 °F 62% 29.91 in 10.0 mi WSW 5.8 mph - N/A   Mostly Cloudy
4:53 PM 81.0 °F 82.2 °F 63.0 °F 54% 29.90 in 10.0 mi SW 8.1 mph - N/A   Scattered Clouds
5:53 PM 81.0 °F 81.9 °F 62.1 °F 52% 29.90 in 10.0 mi WSW 6.9 mph - N/A   Clear
6:53 PM 79.0 °F - 63.0 °F 58% 29.91 in 10.0 mi SW 5.8 mph - N/A   Clear
7:53 PM 75.0 °F - 62.1 °F 64% 29.92 in 10.0 mi West 3.5 mph - N/A   Clear
8:53 PM 73.0 °F - 63.0 °F 71% 29.94 in 10.0 mi West 4.6 mph - N/A   Clear
9:53 PM 72.0 °F - 62.1 °F 71% 29.96 in 10.0 mi NW 3.5 mph - N/A   Clear
10:53 PM 72.0 °F - 61.0 °F 68% 29.97 in 10.0 mi Calm Calm - N/A   Clear
11:53 PM 69.1 °F - 61.0 °F 75% 29.98 in 10.0 mi Calm Calm - N/A   Clear